"Pseudo-MPEC" for ZTB7561

Created 2018 Oct 14 10:18:14 UT using Find_Orb

Click here for an explanation of pseudo-MPECs

 
 Astrometry: 
     ZTB7561  C2018 10 04X'AstrometryLu*I`qhoGl3F3!S^gKYve6W\Oc;ODg$N7?yY4FKGF52
     ZTB7561  C2018 10 048#GE;4pOd5kUmM*0h3U0l]!1]Zy]+!*wX+CNtm#^)n9PAw:d1ot#F52
     ZTB7561  C2018 10 10.35551 04 00 20.16 +28 37 34.0          19.7 GVNEOCPG96
     ZTB7561  C2018 10 10.36065 04 00 25.20 +28 38 43.6                VNEOCPG96
     ZTB7561  C2018 10 10.36579 04 00 30.33 +28 39 53.5          19.9 GVNEOCPG96
     ZTB7561  C2018 10 10.37094 04 00 35.45 +28 41 03.6          19.8 GVNEOCPG96
     ZTB7561  C2018 10 10.48356 04 02 26.04 +29 05 15.5          19.3 GVNEOCPI52
     ZTB7561  C2018 10 10.48527 04 02 27.72 +29 05 36.7          19.7 GVNEOCPI52
     ZTB7561  C2018 10 10.48583 04 02 28.30 +29 05 43.1          19.4 GVNEOCPI52
     ZTB7561 KC2018 10 11-u4D/3'nifk!K4OE\R*eFw;BuU,,%Zcf/Q0k2a1Wc]F8((kfGkd3K88
     ZTB7561 KC2018 10 11_KsEPSb941rs)X\@$tI`?i-1SIxltrk%%SuvF0XN1Q1i3RGaUa[DK88
     ZTB7561 KC2018 10 11nFRqDxkpDJPQFLx\Vredacted;*ma;6NG7ixJ!lpS=o+ceO3;'3AK88
     ZTB7561 KC2018 10 11%i$5sKPibXjyGGRLHxBUk`%WjlLqnPIL?wwI@9'0mNWE%wwZ9hurL01
     ZTB7561 KC2018 10 11yee6ENfn_kQ.1E5v8=S7r34om(7Bk-eqCdEcYyH$PVjuEfgcsX[,L01
     ZTB7561 KC2018 10 11G*TOuv)f^I7[36yl5GKfX;;W[]@T;U;b9ok5EuU]xm?1]rXs?)9QL01
     ZTB7561  C2018 10 11xTc3k]A-9\I,+ouQDQ4Bx-S[%1.ynG*FVmYGQ!.D7XPC'LtKWbGUH01
     ZTB7561  C2018 10 11JTjOfy(43[VZ:$1o2U-D`PK2$Pifwx6RseeB@ruH`v5ARp60'+C7H01
     ZTB7561  C2018 10 118AwhmcFw,3O^#[wSV9R55*_K;AV82IYckL8$2%Sp\hPZA,448##CH01
     ZTB7561  C2018 10 11cN8*_Pbc%Sj+kH=JUg-CqAXU,JX0GA8_%Qiu9-Tmw_8yVcTwpQI7H01
     ZTB7561 KC2018 10 12o[l!+$eSF$8%/\!IiU@oT?%qM#g$XMaJ(l)HEOL8.5N/^=?T74c0H21
     ZTB7561 KC2018 10 129Z]pH;vZB]_J*hr)=xAK4I5L@T'WBjg[J$,L?(-a@lfJZ8SNEOCPH21

Station data:
(F52) Pan-STARRS 2, Haleakala  (N20.707384 W156.255910)  US/Hawaii.
(G96) Mt. Lemmon Survey  (N32.442754 W110.788720)  US/Arizona.  Observers B.
   M. Africano, E. J. Christensen, D. C. Fuls, A. R. Gibbs, A. D. Grauer, J.
   A. Johnson, R. A. Kowalski, S. M. Larson, G. J. Leonard, R. L. Seaman, F.
   C. Shelly. 1.5-m reflector + 10K CCD.
(H01) Magdalena Ridge Observatory, Socorro  (N33.984833 W107.189333)  US/New
   Mexico.  Observers W. H. Ryan, E. V. Ryan. Measurer W. H. Ryan. 2.4-m
   f/8.9 reflector + CCD.
(H21) Astronomical Research Observatory, Westfield  (N39.483057 W87.968270)
   US/Illinois. 0.76-m f/3.0 astrograph + CCD.
(I52) Steward Observatory, Mt. Lemmon Station  (N32.442547 W110.788920)
   US/Arizona.  Observers B. M. Africano, E. J. Christensen, D. C. Fuls, A.
   R. Gibbs, A. D. Grauer, J. A. Johnson, R. A. Kowalski, S. M. Larson, G. J.
   Leonard, R. L. Seaman, F. C. Shelly. 1.0-m reflector + CCD.
(K88) GINOP-KHK, Piszkéstető  (N47.917622 E19.893600)  Hungary.  Observer K.
   Sárneczky. 0.60-m Schmidt + CCD.
(L01) Višnjan Observatory, Tičan  (N45.290900 E13.749300)  Croatia.  Observer
   K. Korlević. 1.0-m f/2.9 reflector + CCD.

Orbital elements:  ZTB7561
   Perihelion 2018 Nov 15.202166 +/- 0.00487 TT =  4:51:07 (JD 2458437.702166)
Epoch 2018 Oct 12.0 TT = JDT 2458403.5   Earth MOID: 0.0070   AutoNEOCP
M 331.34334 +/- 0.006               (J2000 ecliptic)
n   0.83786094 +/- 7.9e-5           Peri.   40.70096 +/- 0.0042
a   1.11434949 +/- 7e-5             Node    14.12412 +/- 0.00025
e   0.1149750 +/- 5.58e-5           Incl.    1.87416 +/- 0.0009
P   1.18/429.66d           H 27.6   G  0.15   U  6.4  
q 0.98622708 +/- 9.16e-7    Q 1.24247189 +/- 0.00014
From 21 observations 2018 Oct. 4-12; mean residual 0".33
Residuals in arcseconds: 
181004 F52  .04-  .10+    181010 I52  .10-  .11+    181011 L01  .26-  .42-    
181004 F52  .03+  .06-    181010 I52  .15+  .36-    181011 H01  .15+  .15-    
181010 G96  .09+  .00     181011 K88  .49+  .34+    181011 H01  .30+  .11-    
181010 G96  .73-  .43-    181011 K88  .23-  .12-    181011 H01  .04+  .07+    
181010 G96  .16-  .30-    181011 K88  .80-  1.2+    181011 H01  .40+  .03-    
181010 G96  .31+  .16+    181011 L01  .35+  .22+    181012 H21  .01+  .00     
181010 I52  .29+  .09-    181011 L01  .02+  .03-    181012 H21  .21-  .14-    

Ephemerides (geocentric):
Date (UTC) HH   RA              Dec         delta   r     elong  mag " sig PA
---- -- -- --  -------------   -----------  ------ ------ -----  --- ---- ---
2018 10 14 10  05 35 06.051   +40 56 28.72  .01387 1.0033 114.4 20.6  .21  45
2018 10 14 11  05 36 09.161   +41 02 00.74  .01388 1.0032 114.2 20.6  .22  46
2018 10 14 12  05 37 12.293   +41 07 29.81  .01390 1.0032 114.1 20.6  .23  47
2018 10 14 13  05 38 15.443   +41 12 55.94  .01392 1.0032 113.9 20.6  .24  48
2018 10 14 14  05 39 18.611   +41 18 19.13  .01393 1.0031 113.7 20.6  .25  49
2018 10 14 15  05 40 21.793   +41 23 39.36  .01395 1.0031 113.5 20.6  .25  50
2018 10 14 16  05 41 24.987   +41 28 56.64  .01397 1.0030 113.4 20.6  .26  50
2018 10 14 17  05 42 28.189   +41 34 10.96  .01398 1.0030 113.2 20.6  .27  51
2018 10 14 18  05 43 31.399   +41 39 22.33  .01400 1.0029 113.0 20.6  .28  52
2018 10 14 19  05 44 34.612   +41 44 30.74  .01402 1.0029 112.9 20.7  .29  53
2018 10 14 20  05 45 37.827   +41 49 36.20  .01403 1.0029 112.7 20.7  .30  53
2018 10 14 21  05 46 41.041   +41 54 38.69  .01405 1.0028 112.5 20.7  .30  54
2018 10 14 22  05 47 44.252   +41 59 38.23  .01407 1.0028 112.4 20.7  .31  55
2018 10 14 23  05 48 47.456   +42 04 34.81  .01409 1.0027 112.2 20.7  .32  55
2018 10 15 00  05 49 50.652   +42 09 28.43  .01411 1.0027 112.0 20.7  .33  56
2018 10 15 01  05 50 53.837   +42 14 19.10  .01412 1.0026 111.9 20.7  .34  56
2018 10 15 02  05 51 57.007   +42 19 06.82  .01414 1.0026 111.7 20.7  .35  57
2018 10 15 03  05 53 00.162   +42 23 51.58  .01416 1.0026 111.5 20.7  .36  58
2018 10 15 04  05 54 03.297   +42 28 33.40  .01418 1.0025 111.4 20.7  .37  58
2018 10 15 05  05 55 06.412   +42 33 12.27  .01420 1.0025 111.2 20.7  .38  59
2018 10 15 06  05 56 09.502   +42 37 48.20  .01422 1.0024 111.0 20.7  .39  59
2018 10 15 07  05 57 12.566   +42 42 21.20  .01424 1.0024 110.9 20.7  .40  60
2018 10 15 08  05 58 15.601   +42 46 51.25  .01426 1.0023 110.7 20.8  .41  60
2018 10 15 09  05 59 18.604   +42 51 18.38  .01428 1.0023 110.5 20.8  .42  61
2018 10 15 10  06 00 21.574   +42 55 42.58  .01430 1.0023 110.4 20.8  .43  61
2018 10 15 11  06 01 24.507   +43 00 03.87  .01432 1.0022 110.2 20.8  .44  61
2018 10 15 12  06 02 27.402   +43 04 22.23  .01434 1.0022 110.1 20.8  .45  62
2018 10 15 13  06 03 30.254   +43 08 37.69  .01436 1.0021 109.9 20.8  .47  62
2018 10 15 14  06 04 33.064   +43 12 50.25  .01438 1.0021 109.7 20.8  .48  63
2018 10 15 15  06 05 35.826   +43 16 59.91  .01440 1.0020 109.6 20.8  .49  63
2018 10 15 16  06 06 38.540   +43 21 06.68  .01442 1.0020 109.4 20.8  .50  64
2018 10 15 17  06 07 41.203   +43 25 10.57  .01444 1.0020 109.3 20.8  .51  64
2018 10 15 18  06 08 43.813   +43 29 11.58  .01446 1.0019 109.1 20.8  .52  64
2018 10 15 19  06 09 46.366   +43 33 09.73  .01448 1.0019 108.9 20.8  .53  65
2018 10 15 20  06 10 48.861   +43 37 05.02  .01451 1.0018 108.8 20.9  .55  65
2018 10 15 21  06 11 51.295   +43 40 57.46  .01453 1.0018 108.6 20.9  .56  66
2018 10 15 22  06 12 53.666   +43 44 47.05  .01455 1.0018 108.5 20.9  .57  66
2018 10 15 23  06 13 55.972   +43 48 33.81  .01457 1.0017 108.3 20.9  .58  66
2018 10 16 00  06 14 58.210   +43 52 17.75  .01459 1.0017 108.2 20.9  .59  67
2018 10 16 01  06 16 00.378   +43 55 58.87  .01462 1.0016 108.0 20.9  .61  67
2018 10 16 02  06 17 02.473   +43 59 37.19  .01464 1.0016 107.9 20.9  .62  67
2018 10 16 03  06 18 04.494   +44 03 12.72  .01466 1.0015 107.7 20.9  .63  68
2018 10 16 04  06 19 06.437   +44 06 45.46  .01469 1.0015 107.6 20.9  .65  68
2018 10 16 05  06 20 08.302   +44 10 15.42  .01471 1.0015 107.4 20.9  .66  68
2018 10 16 06  06 21 10.085   +44 13 42.63  .01473 1.0014 107.3 20.9  .67  69
2018 10 16 07  06 22 11.784   +44 17 07.08  .01476 1.0014 107.1 20.9  .68  69
2018 10 16 08  06 23 13.398   +44 20 28.79  .01478 1.0013 107.0 20.9  .70  69
2018 10 16 09  06 24 14.924   +44 23 47.77  .01480 1.0013 106.8 21.0  .71  70